Theta_e
323 324 324 324 324 323 324 323 325 330 331 331 331 332 332 331 331 331 331 332 331 332 333 333 334 333 333 334 333 333 332 330 326 324 323 330 335 338 338 339 337 337 330 311 309 308 305 302 306 303 303 304 304 305 307 308 306 307 301 293 292 292 293 295 295 294 297 293 295 295 296 297 297 299 303 304 304 302 304 306 306 310 311 311 312 314 318 319
320 324 324 324 324 324 324 324 325 326 330 331 331 332 332 332 331 331 330 331 331 331 333 333 333 333 332 334 334 333 330 327 323 323 324 335 338 338 340 338 336 333 323 313 308 304 304 304 302 302 303 302 305 306 309 307 306 299 295 296 296 295 298 300 297 297 297 299 295 295 295 298 298 300 301 301 299 303 304 304 305 308 310 312 315 317 318 318
321 321 323 323 324 324 324 323 323 324 327 330 330 331 331 331 330 330 330 330 330 330 330 333 332 332 332 333 332 331 330 324 322 319 326 339 338 338 337 337 335 330 316 312 309 305 306 304 302 302 302 300 301 304 305 304 305 299 298 296 297 301 303 302 298 299 298 298 296 295 295 297 299 301 300 302 297 301 302 300 303 304 307 309 312 315 317 317
320 323 323 323 323 323 323 323 323 323 325 329 330 330 330 330 330 330 330 330 330 330 331 330 331 331 332 332 332 331 328 322 316 322 330 338 337 338 336 336 334 322 315 312 310 308 306 305 305 303 301 300 297 305 304 303 302 300 298 296 301 304 303 305 301 299 296 298 297 295 294 297 297 299 301 297 300 299 301 301 305 305 308 309 312 314 315 316
320 320 323 322 322 323 324 323 323 324 324 326 329 329 329 330 330 329 329 329 329 330 330 330 331 331 332 331 330 330 321 310 311 326 331 337 338 338 337 336 328 315 316 314 313 310 309 306 305 302 300 297 299 301 301 303 303 300 299 298 300 301 303 305 302 299 295 294 294 293 296 296 297 298 297 300 299 298 302 306 305 306 309 312 313 314 315 316
319 319 321 323 322 322 324 323 323 324 324 327 328 329 328 329 329 329 329 329 329 330 329 330 330 330 330 330 328 326 313 294 315 322 335 337 337 338 338 336 326 314 314 311 310 309 308 307 304 300 298 297 297 299 298 303 305 299 299 299 298 299 302 302 300 297 295 295 294 294 297 297 298 297 295 299 301 301 300 302 304 306 309 315 316 316 315 315
318 320 320 322 322 322 324 323 322 323 323 326 327 329 328 329 329 329 329 329 329 329 329 330 330 330 329 328 327 322 311 308 311 319 333 337 337 337 337 335 325 316 313 310 309 308 305 304 304 299 298 298 296 298 299 303 303 302 299 299 301 301 301 299 299 294 294 296 296 296 296 297 295 297 295 297 300 303 297 294 295 303 314 316 315 315 317 317
318 319 320 320 321 322 321 321 322 322 322 324 327 328 329 328 329 329 329 329 329 329 329 329 329 329 327 323 317 312 311 309 313 316 332 336 335 335 334 326 321 316 313 310 308 306 305 303 304 300 298 298 296 300 300 302 302 301 300 299 300 300 300 300 296 293 293 295 296 296 296 296 296 295 293 296 301 302 299 301 306 311 314 313 315 315 316 316
317 318 320 320 321 321 321 321 322 322 323 323 325 327 328 328 328 329 328 328 329 328 329 329 328 329 328 323 317 312 309 318 315 318 321 333 332 332 329 322 320 318 312 309 308 308 308 302 304 304 301 298 299 299 298 301 298 300 302 300 300 301 300 298 301 298 294 295 296 297 294 293 294 297 297 297 298 300 297 304 309 311 312 314 315 316 316 316
317 318 319 319 320 321 322 321 322 323 323 323 323 324 327 328 327 328 329 329 329 328 329 329 329 327 323 318 315 306 317 320 318 319 321 329 330 329 327 323 321 318 313 309 307 307 308 304 308 305 302 301 300 299 298 301 299 300 301 302 302 302 300 295 301 296 293 296 295 296 293 294 297 297 295 298 300 298 297 301 308 311 312 314 315 315 315 316
317 318 319 319 318 320 321 322 322 323 323 323 323 324 325 327 327 327 329 329 329 329 329 328 328 326 317 319 310 304 316 322 318 319 323 328 327 326 325 321 323 319 318 308 309 308 309 308 307 307 307 302 300 299 300 300 301 301 301 301 300 301 300 295 295 294 296 299 293 295 294 296 297 295 296 301 301 297 298 298 306 309 311 314 315 315 316 316
317 317 318 319 319 320 321 322 322 323 323 323 323 323 324 325 328 326 327 328 328 328 328 328 329 324 320 315 311 309 315 317 319 323 326 327 326 326 326 323 323 322 317 309 309 310 309 309 310 309 303 304 299 300 299 301 304 300 301 298 296 298 300 299 299 296 296 297 295 294 295 293 295 296 297 299 296 299 298 296 301 307 310 312 314 315 315 316
316 317 318 318 319 319 320 322 322 322 323 323 323 322 323 325 327 326 326 326 326 327 328 328 325 322 316 308 313 316 315 318 321 324 325 324 319 322 324 319 321 321 319 313 310 310 308 309 310 307 305 303 298 300 303 303 302 300 299 298 297 297 295 299 294 294 296 296 294 298 292 291 297 299 298 299 301 297 299 298 297 302 307 310 312 314 315 316
316 317 318 318 318 318 321 322 322 322 322 322 322 323 323 324 326 327 326 324 324 325 326 325 323 319 314 309 316 318 318 319 323 323 320 322 322 315 319 317 313 311 312 310 308 308 309 309 310 306 305 302 301 305 301 298 299 297 296 297 292 293 292 296 296 294 296 296 295 297 293 295 297 297 297 298 298 300 300 299 298 297 300 305 309 313 314 316
316 316 317 317 318 318 319 321 322 322 322 322 322 322 323 325 326 326 327 323 324 325 324 325 321 314 308 311 317 320 326 321 319 318 321 319 316 315 315 315 313 311 311 311 309 309 309 308 307 304 298 303 303 302 295 295 292 294 295 292 289 293 292 293 295 295 298 295 296 296 291 295 298 299 298 298 298 298 299 301 300 298 297 299 302 307 311 315
315 316 317 317 317 318 318 320 321 321 322 322 321 322 322 322 323 326 327 325 325 325 323 316 314 313 307 305 312 323 318 313 312 318 317 320 319 316 316 314 311 312 313 310 311 311 309 309 305 300 300 302 300 293 291 293 293 293 295 286 289 287 290 293 296 293 297 295 297 297 291 289 292 296 297 297 298 297 299 300 300 300 299 298 298 299 302 307
315 316 317 317 317 319 319 320 320 321 321 321 321 321 321 322 323 325 325 325 323 322 319 310 313 312 302 312 318 313 311 312 315 315 315 316 319 314 313 312 310 312 314 313 311 312 311 307 302 301 300 298 296 296 292 292 291 292 291 292 286 290 289 291 294 295 293 295 294 295 293 296 295 297 297 296 298 296 297 299 300 300 301 300 299 298 299 300
314 315 316 317 317 318 319 319 320 320 320 319 318 317 316 318 323 322 320 320 316 316 313 313 311 307 303 308 304 309 316 313 314 315 313 313 316 316 315 310 311 313 312 307 309 307 306 302 302 298 297 296 297 297 293 289 292 290 288 288 289 289 291 292 295 295 294 293 293 292 293 295 297 298 298 298 295 296 298 300 301 300 300 300 300 299 299 300
314 315 316 317 317 317 318 319 320 319 318 319 319 320 320 319 319 313 307 308 307 301 300 301 303 293 290 302 309 312 313 315 316 315 310 313 314 317 314 313 312 308 303 303 301 306 301 300 298 294 294 294 296 298 296 292 294 294 292 290 287 289 288 291 294 294 295 292 292 292 292 295 297 298 299 300 298 296 298 297 297 298 298 299 300 300 300 300
313 314 316 316 316 317 317 318 319 319 317 316 315 314 312 305 303 302 305 307 305 304 304 305 308 307 304 306 308 314 317 317 311 311 311 313 315 312 311 312 308 307 302 299 300 302 302 296 294 294 297 297 298 298 299 292 295 293 292 291 290 292 290 291 292 295 295 293 292 293 294 294 296 297 299 299 299 297 297 298 299 300 301 301 301 301 301 301
313 313 314 316 316 317 317 317 319 319 318 315 313 308 299 301 297 292 298 303 306 301 301 304 307 303 304 308 312 312 309 308 311 310 310 315 315 312 306 307 302 298 300 302 299 301 302 295 295 298 299 299 299 299 298 293 293 293 291 291 291 291 293 292 295 295 294 293 289 292 291 293 295 297 298 299 296 297 299 300 300 301 302 303 303 303 302 303
313 313 314 316 316 316 317 317 319 318 320 314 310 306 306 308 309 311 306 296 300 300 301 303 305 304 308 309 313 314 313 307 306 309 313 314 310 306 304 303 299 295 300 300 300 297 295 294 298 301 301 298 297 297 297 297 292 292 291 289 288 289 289 293 293 294 295 293 291 290 292 295 295 297 299 298 298 300 301 302 302 302 302 303 303 303 303 302
313 312 315 316 316 317 316 317 318 318 315 309 306 307 305 310 312 313 309 303 299 301 301 302 303 302 306 310 312 312 307 304 302 307 309 312 307 306 305 301 298 298 299 300 297 295 292 296 300 302 299 298 294 295 294 293 293 292 288 288 289 288 291 288 292 291 295 295 290 288 290 294 295 297 298 300 299 299 301 302 302 303 303 304 305 305 305 304
313 313 313 315 316 316 317 316 317 314 309 309 308 307 310 312 312 310 303 293 293 300 300 300 303 303 306 306 311 309 306 306 307 304 313 311 304 307 304 302 298 299 296 300 299 297 295 300 303 301 299 298 295 294 294 293 292 291 292 289 287 288 292 293 291 292 291 293 289 291 293 295 298 296 299 301 300 300 301 301 302 302 302 304 304 304 305 305
313 313 313 314 314 316 316 316 310 308 311 309 308 310 311 313 312 309 300 293 295 296 301 300 299 300 307 308 311 308 305 303 306 310 312 311 306 305 302 305 301 296 298 300 300 299 299 301 304 301 300 298 296 291 294 294 291 292 292 294 292 291 291 292 290 293 287 288 288 290 286 288 290 296 298 300 297 296 298 299 301 303 303 302 301 302 304 304
312 313 313 314 315 316 317 307 305 310 308 305 308 310 312 313 312 306 297 284 283 291 296 292 304 299 309 304 307 303 306 301 307 310 312 312 314 307 305 301 303 295 299 299 299 300 300 301 303 300 298 297 297 295 295 296 293 291 292 295 292 293 292 290 290 292 285 285 288 289 287 285 286 289 291 294 294 296 296 296 299 301 302 302 303 303 303 304
311 313 313 314 314 315 306 300 311 311 303 304 310 312 311 311 309 306 292 279 279 291 289 298 297 295 305 303 306 305 291 295 309 311 311 313 307 312 301 299 301 303 304 302 298 293 301 299 299 300 298 297 296 295 297 296 294 291 295 296 293 292 292 290 290 292 285 286 288 288 287 285 287 293 291 292 294 295 294 295 296 298 300 300 301 302 303 304
311 312 313 314 314 314 307 311 308 304 305 309 311 311 311 308 307 301 290 273 273 297 289 294 295 304 303 305 305 299 297 306 299 305 312 312 312 306 304 299 298 298 301 300 287 301 302 296 298 297 297 296 295 298 299 298 295 292 294 299 295 294 292 289 292 287 288 288 288 286 287 285 286 289 292 294 292 293 295 295 297 299 300 300 300 301 302 303
312 312 311 313 314 314 312 308 308 305 309 311 311 311 309 308 305 293 281 273 289 285 301 292 305 302 300 304 300 297 296 299 296 306 311 311 311 307 299 301 301 301 302 301 294 298 302 301 300 300 297 294 298 299 298 299 295 292 295 296 293 292 289 292 288 291 287 286 285 288 288 285 286 291 289 288 292 293 294 295 297 299 300 301 301 301 302 302
312 312 312 313 312 311 308 309 308 311 311 311 310 309 308 305 293 284 278 270 292 279 293 295 296 292 300 296 296 297 295 298 300 307 308 304 307 308 304 309 303 300 297 300 299 298 300 301 303 300 297 299 296 296 299 300 294 297 299 295 290 285 284 283 286 286 286 284 287 290 289 289 282 289 289 288 291 292 293 294 293 297 299 300 301 301 302 301
312 313 312 312 306 307 308 302 307 311 310 308 308 307 304 297 285 279 274 279 290 287 295 293 289 300 295 294 290 295 295 299 299 303 298 304 301 304 303 300 303 298 295 295 294 296 297 299 300 300 302 298 300 295 298 300 299 298 287 289 293 289 290 290 286 287 285 284 290 293 289 290 282 285 287 293 290 291 294 294 295 296 298 299 300 301 302 301
312 312 313 311 311 310 303 301 308 311 307 307 307 302 296 282 284 277 274 296 280 286 288 287 295 295 295 296 295 294 293 295 299 300 295 297 296 296 297 292 296 287 287 289 287 295 293 295 298 298 301 301 297 295 295 298 299 298 295 294 288 283 287 282 287 282 284 283 287 290 292 286 287 292 289 289 291 291 291 294 296 296 297 298 299 300 300 297
311 311 312 311 311 307 308 309 310 308 307 307 303 299 288 281 273 283 282 284 275 291 287 293 292 294 294 293 291 294 295 291 299 299 299 298 297 297 300 298 299 294 285 290 289 289 290 296 296 296 298 302 300 293 291 291 296 296 294 290 286 282 282 279 283 285 286 288 287 285 290 286 291 294 298 298 299 299 299 298 297 297 298 299 300 297 294 294
312 312 308 309 309 309 309 309 309 308 305 304 298 292 287 279 277 288 283 279 280 290 293 289 293 294 293 288 289 293 289 294 297 295 298 293 293 291 295 298 300 293 290 288 288 288 285 285 292 295 291 300 300 298 297 295 296 296 298 294 289 287 283 278 281 279 281 284 283 286 283 280 285 287 291 294 297 300 302 302 302 301 299 296 295 294 294 294
312 310 308 310 309 309 309 310 309 308 306 300 293 287 279 279 284 280 280 281 283 290 288 294 291 291 288 289 292 293 292 289 297 296 294 293 290 291 290 291 297 296 292 288 288 289 288 288 294 300 299 301 297 301 302 298 294 296 296 297 290 287 289 282 279 282 282 282 280 282 283 285 290 293 291 290 288 291 289 291 292 297 298 296 297 298 298 298
309 306 309 303 304 307 310 309 309 308 303 296 288 282 280 283 277 284 282 289 289 287 289 292 291 287 286 284 289 291 295 289 294 294 292 293 293 292 294 293 292 297 293 289 290 286 288 286 293 298 299 299 299 300 299 301 287 294 295 289 293 297 291 283 281 279 278 278 280 281 284 286 292 295 297 298 293 294 294 293 291 294 297 298 299 300 300 301
303 306 301 303 305 308 309 309 308 305 301 294 286 281 285 281 285 286 289 288 289 292 289 283 284 285 283 282 287 290 290 292 292 292 286 293 290 293 292 291 297 297 297 292 285 290 288 287 292 295 293 298 302 301 301 301 300 296 289 294 296 296 293 290 282 280 278 277 277 286 282 284 283 282 287 291 292 295 295 297 297 295 295 297 299 300 301 301
303 302 303 302 305 308 309 309 307 303 298 291 284 286 284 285 288 288 290 291 291 291 287 286 287 290 284 285 284 288 291 288 288 291 287 292 286 297 293 291 295 297 297 296 289 289 292 285 289 295 296 295 299 300 297 300 299 297 294 302 292 285 285 286 285 278 277 278 278 282 284 285 286 287 288 288 288 289 291 295 294 295 295 296 298 299 300 300
303 299 294 301 308 308 307 308 305 299 293 286 285 284 284 284 288 288 291 293 293 290 286 288 286 287 288 285 287 289 290 284 290 288 287 289 286 293 294 295 291 296 297 295 291 291 291 285 286 293 294 294 297 297 288 293 298 298 298 296 295 293 287 286 287 287 286 279 278 280 282 281 289 290 292 292 293 289 290 291 294 297 299 299 299 300 300 300
299 293 291 303 308 308 308 306 300 296 290 283 286 284 286 284 287 289 290 294 288 287 285 288 287 286 287 285 288 286 289 287 290 287 287 288 288 292 293 298 292 293 296 296 292 295 287 291 283 288 293 295 288 294 292 294 290 292 293 291 292 290 292 291 289 286 284 282 282 280 280 283 291 294 293 293 294 292 293 294 296 297 299 300 300 300 300 298
299 292 291 303 307 308 306 301 293 288 286 286 287 284 285 283 287 288 289 289 287 287 287 288 287 285 286 285 285 289 286 287 288 287 287 286 289 284 290 294 294 292 295 295 293 293 287 287 284 287 287 288 292 298 298 297 296 294 294 291 293 290 286 284 281 290 287 285 280 282 280 287 290 290 294 293 294 294 295 296 296 297 299 300 301 300 299 298
293 285 288 302 307 306 300 289 286 287 285 285 283 285 285 292 286 287 288 288 288 285 287 286 286 285 286 286 288 289 288 286 287 287 286 285 289 288 290 296 296 296 294 289 291 296 292 287 286 285 286 289 292 292 293 296 299 297 296 293 296 294 291 287 283 285 286 287 287 281 278 285 293 287 290 292 292 293 295 295 296 297 298 299 301 301 299 294
290 285 296 299 306 304 296 287 286 286 284 286 290 289 292 288 287 287 289 288 286 285 287 286 285 284 284 284 286 287 289 285 287 286 288 288 287 290 287 294 296 296 296 291 295 293 295 286 284 285 287 289 291 292 293 294 297 294 294 294 294 291 292 290 289 287 285 286 285 284 283 287 295 286 290 289 288 289 291 292 296 297 297 299 299 300 299 296
287 288 291 298 303 303 292 281 281 284 284 286 288 288 289 287 287 287 287 287 286 287 287 284 285 286 284 285 289 287 290 283 286 286 285 286 285 288 288 293 298 295 295 292 291 296 289 287 288 283 283 284 286 290 290 291 293 291 290 294 295 295 295 293 290 288 285 286 288 286 280 287 296 288 287 285 285 286 288 290 290 294 296 296 297 297 297 293
288 290 290 293 298 300 287 286 286 284 284 285 286 284 287 287 287 289 289 287 285 284 286 284 285 284 283 284 286 287 290 286 283 287 287 284 288 284 288 294 298 296 296 297 297 299 290 288 287 281 278 277 277 278 281 285 287 291 293 293 294 294 293 290 285 286 283 287 289 285 285 292 297 291 291 286 284 286 287 286 286 287 292 295 296 296 295 291
285 281 285 287 289 289 286 286 287 286 285 285 284 286 287 285 287 288 291 285 286 285 284 285 283 286 282 286 281 280 286 284 282 282 286 284 284 285 285 292 296 296 297 297 296 296 282 285 290 287 284 282 285 286 288 290 288 286 287 291 292 294 295 293 290 286 284 286 285 287 289 290 292 295 296 291 285 287 289 289 289 291 291 291 291 291 292 292
287 283 284 281 286 286 285 286 285 286 285 288 283 286 283 285 286 285 288 286 288 286 284 284 285 286 282 285 283 283 286 283 283 284 286 287 283 284 285 288 292 295 296 294 296 291 281 284 288 288 288 288 288 288 287 292 289 290 290 290 293 293 292 290 288 286 292 288 284 289 291 288 291 294 296 293 288 285 286 287 289 288 290 291 291 289 291 290
282 283 286 289 285 281 282 282 286 286 286 287 284 286 285 284 285 283 285 285 284 286 286 285 285 288 287 286 285 282 283 282 281 280 284 284 285 286 286 287 290 293 295 291 292 289 286 285 287 287 287 289 289 287 286 288 290 291 291 291 291 292 292 289 289 292 293 287 285 292 292 290 293 296 297 293 291 294 294 294 291 288 287 287 287 288 290 291
287 285 285 289 283 284 287 286 287 286 286 286 284 286 284 284 284 285 285 284 284 283 285 282 284 284 287 287 286 282 284 281 281 279 281 283 285 285 283 285 288 287 291 289 293 286 287 286 287 287 286 287 288 288 286 287 287 289 290 291 292 292 292 292 292 293 293 291 293 293 292 292 295 297 294 294 291 289 290 288 288 288 290 288 288 290 291 292
283 283 281 285 286 286 286 286 286 286 284 287 283 284 286 285 284 283 284 284 281 284 284 285 285 283 285 286 287 284 285 288 287 284 281 283 281 284 284 285 283 286 290 290 291 290 289 285 291 285 284 285 287 288 285 286 286 287 288 289 291 291 292 293 293 293 293 293 294 293 291 291 297 299 296 292 290 291 291 293 295 293 291 291 291 292 293 294
286 286 286 285 283 285 286 286 285 285 284 284 283 284 285 286 284 285 282 283 287 284 284 286 285 283 283 285 284 286 288 288 288 289 288 288 285 287 287 283 286 285 289 289 290 289 290 285 288 284 283 284 287 286 286 286 286 286 287 287 286 288 287 290 290 293 292 290 292 292 289 290 296 299 294 297 298 297 297 296 293 295 296 297 298 297 296 295
288 288 288 285 281 286 285 286 286 285 282 284 285 285 285 285 286 286 283 283 283 286 287 286 285 285 280 283 284 286 287 287 285 287 290 290 287 287 284 284 288 289 288 289 289 288 287 287 286 284 282 282 287 286 285 285 285 282 284 288 288 288 290 292 293 294 294 295 291 288 290 296 299 296 295 299 299 298 297 297 297 298 300 300 299 300 300 296
Wind_Speed
23 21 22 21 25 25 23 26 25 22 22 22 21 20 20 20 20 20 17 19 19 17 17 18 16 14 14 13 15 13 10 7 5 7 9 11 9 6 10 11 6 7 5 2 3 3 1 2 1 6 3 2 3 1 2 2 1 1 1 3 2 2 4 4 5 7 1 1 2 2 3 4 2 0 1 1 4 2 1 1 3 1 3 3 3 2 1 6
25 21 21 21 23 24 25 25 22 22 22 21 21 20 19 19 21 20 20 19 20 16 18 17 16 15 14 14 16 14 9 5 11 9 17 7 10 6 6 7 9 9 6 1 4 3 4 0 1 3 3 1 1 0 2 1 1 2 2 2 6 4 3 5 5 6 3 2 2 3 2 4 3 6 2 2 1 1 0 3 1 3 4 2 2 2 6 7
22 24 20 21 22 23 23 26 26 25 22 21 21 20 20 19 21 22 20 16 16 16 18 17 17 17 15 16 15 15 7 2 6 17 15 8 11 9 11 8 9 8 2 3 2 6 4 4 3 2 2 1 5 1 3 1 1 1 4 4 5 4 2 3 3 5 4 3 2 4 1 2 1 4 1 2 2 1 5 4 2 3 5 6 1 2 5 6
24 25 20 21 24 24 25 25 27 26 22 21 21 20 20 20 20 20 20 18 18 17 17 18 19 18 17 16 17 10 5 1 12 7 10 13 13 12 12 10 9 7 6 6 4 4 4 6 5 3 1 2 3 1 1 2 1 1 2 5 4 4 2 3 3 3 4 2 2 4 1 1 1 3 3 3 4 4 6 6 8 10 10 6 4 4 5 7
24 25 22 21 22 23 25 25 26 25 25 22 20 21 20 19 20 19 20 17 15 17 17 19 19 17 16 16 16 10 8 5 7 9 11 17 14 14 12 11 10 5 4 5 7 4 5 4 3 3 2 2 1 1 2 0 0 3 5 2 3 1 0 2 4 3 2 2 5 3 5 5 2 1 2 8 7 7 9 10 10 8 7 7 8 7 5 7
26 25 24 21 22 24 22 24 26 24 26 22 21 20 20 20 19 19 20 21 21 16 19 19 20 18 16 16 11 10 11 14 2 8 14 18 17 15 12 11 11 9 7 4 3 4 6 2 5 2 1 1 2 4 2 0 0 4 2 2 2 2 1 1 1 4 5 2 4 4 4 3 5 1 3 6 8 6 5 2 5 9 5 6 6 8 8 8
26 25 21 20 20 23 21 21 24 24 29 22 20 20 20 20 20 20 20 20 20 19 18 20 22 18 18 16 9 12 14 5 1 4 9 23 19 15 13 11 10 7 6 4 3 4 3 4 4 3 3 1 1 2 4 1 1 1 4 0 3 1 4 1 1 2 3 8 4 2 1 3 2 4 1 4 8 9 3 1 4 3 3 6 9 10 13 14
24 23 21 20 18 18 17 21 23 23 28 24 20 19 19 19 20 20 20 20 20 18 18 20 21 19 19 10 9 11 11 10 3 2 11 22 20 17 13 7 9 7 7 7 7 5 6 7 7 3 2 7 3 5 1 1 1 3 4 3 2 0 4 2 0 0 1 1 0 3 3 4 6 3 3 6 12 10 4 2 1 3 5 5 6 11 10 9
24 23 22 20 21 19 20 20 20 20 21 23 19 19 20 19 19 20 20 20 20 20 19 20 22 19 17 8 10 10 17 5 4 1 5 18 17 15 12 6 6 8 5 4 2 5 8 5 3 5 5 4 3 4 1 2 6 4 7 2 0 2 2 2 2 3 0 0 1 1 5 3 2 1 3 8 7 8 2 1 3 3 4 6 9 10 10 11
24 22 22 20 21 21 19 19 20 19 20 21 21 20 20 19 18 20 20 20 20 22 21 21 21 21 13 9 9 17 6 8 1 1 6 11 14 16 15 11 13 10 8 4 3 5 6 6 9 5 6 2 4 3 1 4 4 2 3 4 5 4 2 3 1 3 0 1 1 4 4 3 2 3 7 2 9 0 3 3 1 5 6 8 7 8 8 10
23 24 23 22 23 21 20 19 20 20 19 18 20 20 20 19 19 19 20 21 21 21 21 22 22 20 11 9 14 19 3 11 3 2 8 10 13 15 16 12 13 12 11 7 9 9 6 9 5 4 1 3 4 1 1 3 2 1 1 3 4 6 2 1 1 2 1 2 4 5 4 0 2 1 8 3 2 3 4 4 4 5 6 7 8 9 8 9
25 25 24 24 23 22 21 20 18 21 23 21 21 22 22 20 19 19 20 20 21 22 21 19 24 12 8 12 14 8 1 0 3 5 8 13 13 14 13 13 14 13 13 11 8 7 6 9 9 5 5 3 1 0 2 4 0 1 1 5 4 4 5 3 5 2 3 3 3 4 2 4 2 11 4 4 1 2 4 4 4 6 7 7 7 7 6 11
26 25 25 23 22 22 21 20 19 20 20 20 19 22 23 19 19 19 21 19 20 21 22 25 18 10 8 14 10 2 2 1 5 8 6 5 5 3 5 4 5 7 12 15 12 8 4 7 7 6 1 5 3 2 1 3 1 2 2 2 4 4 5 6 3 1 4 2 4 2 7 5 13 14 2 4 1 2 1 5 5 6 6 7 6 7 9 8
25 24 24 22 22 24 22 21 20 18 18 18 19 21 22 19 18 19 20 17 17 22 20 19 13 11 10 6 2 1 1 3 6 9 7 7 10 4 5 5 5 4 4 4 3 3 4 2 7 5 2 3 1 1 1 2 1 5 2 2 4 3 5 1 2 4 4 2 4 1 8 7 8 6 5 5 4 6 7 7 7 6 6 6 7 7 9 11
26 25 23 22 23 24 23 22 21 20 21 20 20 21 21 20 20 19 19 19 22 21 14 16 7 8 8 4 4 4 4 5 7 5 8 11 12 6 7 6 5 5 4 5 4 3 3 5 6 4 1 0 2 0 2 0 2 1 2 7 0 7 3 3 1 7 7 1 1 4 6 11 11 9 6 4 4 5 8 8 8 7 7 7 6 7 9 11
26 26 25 24 25 23 23 21 21 20 22 22 23 22 18 16 19 20 19 15 20 22 11 4 2 1 4 6 4 3 3 4 3 6 3 15 12 9 9 8 7 5 6 3 2 4 2 3 3 5 3 1 2 4 2 1 3 1 8 1 5 3 5 3 1 4 2 2 1 8 7 4 6 8 4 2 3 5 7 9 8 8 7 7 6 7 8 9
25 25 24 25 26 24 24 22 21 23 23 22 23 21 18 18 20 21 20 15 13 7 9 3 6 1 7 1 4 9 6 2 4 2 3 1 9 14 12 11 4 8 10 7 4 7 3 3 2 1 1 4 4 5 4 8 8 8 3 7 2 5 2 5 3 2 3 3 4 5 6 12 3 2 1 2 2 4 5 9 10 9 8 7 5 7 9 10
25 25 25 24 26 26 25 24 23 23 24 23 21 15 12 13 19 19 13 10 5 4 3 3 4 4 6 1 9 10 7 7 6 6 4 1 11 14 15 7 5 12 10 4 2 4 2 3 0 6 3 4 6 9 13 17 13 6 3 4 3 1 4 5 5 3 6 3 5 4 8 12 9 7 8 2 2 4 7 8 8 7 6 7 7 8 10 10
25 27 26 24 24 25 24 24 25 22 18 18 18 19 16 16 7 3 3 7 8 6 6 8 11 12 2 8 7 5 7 9 8 11 4 9 4 7 5 5 15 16 8 8 3 8 1 4 2 5 11 10 14 15 16 2 6 9 7 5 3 5 3 4 5 2 9 5 6 6 9 11 14 12 10 11 5 4 7 5 6 7 7 7 8 9 9 10
27 27 25 26 26 21 24 25 23 25 25 18 15 12 10 9 8 6 2 3 11 6 3 13 11 3 5 5 1 2 5 6 12 1 8 4 13 9 7 9 6 6 11 11 7 10 5 11 12 14 15 14 11 12 11 2 2 4 6 5 5 5 4 3 3 1 3 2 9 10 10 11 12 9 10 9 7 5 7 9 10 10 10 10 10 10 11 10
26 27 27 25 25 24 28 27 24 23 28 17 17 13 11 14 15 12 8 6 3 2 3 3 12 3 1 6 4 11 12 4 3 6 6 1 12 17 6 10 10 9 12 12 11 3 6 9 15 17 16 14 15 12 8 5 3 6 5 7 8 8 9 4 4 1 1 5 2 3 5 11 13 12 12 9 5 9 12 12 11 13 12 12 13 13 12 13
27 27 27 26 26 24 25 26 24 27 27 13 13 12 2 12 4 7 16 11 6 3 2 4 5 4 1 1 7 4 4 5 4 3 1 4 10 13 6 11 13 13 8 7 9 9 10 16 19 20 9 5 5 8 9 12 3 1 5 5 4 6 1 2 2 1 0 2 7 4 7 9 10 12 11 10 11 11 11 14 15 12 13 12 12 11 12 10
28 28 26 26 29 27 28 27 26 27 15 11 13 13 5 2 8 10 9 7 3 2 3 6 8 4 2 1 2 3 13 11 9 11 11 7 10 7 10 7 11 8 8 11 15 10 12 14 18 7 7 9 5 6 5 4 3 5 3 5 7 3 6 5 3 0 1 3 2 1 7 11 8 10 14 11 9 8 12 15 16 12 13 15 15 12 12 13
27 28 28 28 26 25 25 28 26 20 11 15 18 16 5 3 13 13 11 5 4 3 1 1 4 4 5 9 4 3 12 6 9 13 3 9 14 7 10 13 14 10 12 15 14 15 17 12 10 8 11 14 11 7 9 8 9 3 5 4 5 4 5 4 1 1 0 1 2 5 9 14 11 10 14 11 12 12 13 12 15 14 12 14 12 11 12 14
28 26 27 28 28 26 24 27 19 14 13 13 14 7 8 7 12 14 11 3 2 3 1 1 2 1 4 2 4 7 2 5 1 9 11 14 13 8 8 5 8 12 15 16 13 12 14 3 15 15 17 11 6 5 11 12 10 8 7 8 6 5 4 2 2 1 2 4 3 3 6 12 3 13 15 11 5 7 7 12 15 18 15 13 13 16 16 12
28 28 28 28 27 25 27 18 12 15 19 16 10 8 9 7 7 3 9 3 6 2 3 10 3 8 3 2 3 4 3 8 1 4 11 4 1 5 6 8 4 15 17 16 13 6 11 5 15 15 11 10 13 13 10 9 9 9 8 7 6 7 5 5 3 3 3 6 3 2 5 14 2 8 5 6 6 10 6 7 13 15 15 13 14 14 14 14
26 27 29 26 29 28 18 9 9 15 15 9 10 12 10 9 8 4 8 2 4 7 10 1 6 2 4 4 9 10 10 7 3 7 7 4 13 2 10 5 3 0 6 5 2 8 6 9 9 12 12 13 12 13 10 14 11 10 5 12 6 5 6 5 5 6 3 1 3 1 2 8 16 16 5 8 13 13 10 10 12 14 15 13 12 12 12 14
25 24 27 28 30 28 11 8 15 17 14 13 10 13 8 3 10 6 2 5 6 11 8 6 3 1 3 5 9 8 1 9 10 9 11 6 8 2 1 10 13 13 11 10 18 6 20 14 15 14 13 13 15 16 11 14 9 3 5 13 8 7 4 4 5 3 0 1 10 3 1 5 12 6 5 10 13 13 15 12 13 16 16 13 13 14 14 15
26 27 29 28 30 27 9 5 16 19 12 15 12 14 9 3 8 9 4 4 0 4 2 9 1 3 5 10 8 1 1 3 1 8 6 4 2 4 9 12 10 10 8 14 13 1 1 14 18 18 15 14 11 7 10 14 13 2 5 5 5 5 2 6 4 6 1 3 13 10 7 8 19 19 6 2 9 17 13 9 14 14 16 16 15 14 14 12
25 26 31 32 25 22 8 2 12 11 14 15 14 15 11 9 7 9 8 5 3 2 4 2 9 10 8 15 7 5 2 1 1 8 9 6 5 3 3 2 4 8 8 7 9 1 1 5 6 7 9 7 5 4 12 14 3 7 8 8 4 4 3 3 2 4 3 10 16 13 11 12 12 17 8 7 11 5 7 7 4 8 12 13 13 13 12 11
27 25 27 30 18 12 10 8 8 10 17 15 17 18 12 8 9 9 10 3 6 1 5 11 9 15 21 20 13 6 3 6 5 9 7 5 7 4 3 2 2 2 6 8 9 3 3 2 4 3 6 4 11 4 1 8 13 12 3 5 8 1 2 1 0 3 8 12 16 11 10 12 12 9 2 4 1 3 6 8 8 9 12 12 10 12 12 10
24 25 26 21 11 12 16 13 13 13 15 21 22 14 13 11 1 11 5 2 7 8 12 9 10 13 17 13 13 14 12 4 5 10 8 11 12 12 13 10 10 7 7 12 11 6 5 6 1 3 3 14 8 10 3 9 8 10 9 10 10 3 5 9 5 11 13 15 2 2 10 4 18 25 6 4 3 3 4 6 8 8 10 11 11 11 8 5
23 24 28 20 14 10 10 10 14 15 17 21 17 13 11 8 11 5 7 6 3 8 7 8 16 20 18 16 14 12 5 10 8 8 11 5 11 14 14 16 15 11 7 12 12 13 6 3 2 3 5 9 14 12 8 8 10 11 13 11 10 9 8 9 9 4 7 6 3 3 5 9 8 18 22 26 19 16 16 13 10 11 11 11 9 6 6 6
21 22 19 16 12 10 8 15 13 18 19 18 14 13 9 11 6 7 10 4 4 3 14 11 14 14 22 17 13 14 10 5 11 6 12 6 6 9 9 9 11 5 3 3 9 9 8 10 8 12 7 11 15 16 18 13 17 17 13 15 12 12 6 10 8 13 13 10 1 3 4 7 8 8 1 5 8 15 16 16 15 15 11 7 7 8 9 10
26 20 13 11 10 6 14 15 18 20 16 16 14 13 18 9 4 12 6 3 1 7 8 8 17 17 14 6 9 12 6 9 12 10 10 8 10 6 7 5 5 4 3 9 3 3 17 7 4 17 3 18 16 11 12 8 6 6 5 6 6 11 2 8 3 6 6 4 1 4 8 5 13 5 3 4 0 4 3 4 5 11 10 10 12 13 12 12
23 12 13 6 10 10 12 13 19 16 17 16 13 10 12 4 4 3 7 4 8 12 13 12 8 11 11 5 4 14 4 3 10 8 6 10 5 10 6 4 5 6 9 12 4 9 3 11 4 11 9 19 18 14 11 16 12 9 7 12 14 4 5 3 2 1 3 2 9 3 7 8 11 19 20 20 5 9 7 7 6 8 10 11 13 13 12 13
12 14 10 8 10 12 14 13 15 15 13 15 11 10 4 3 0 6 6 10 10 21 18 18 11 12 9 7 8 14 5 5 9 13 6 5 9 10 5 1 8 3 1 4 1 2 8 3 2 5 6 9 12 14 9 16 4 7 10 10 4 4 3 6 9 2 4 6 6 8 12 11 4 15 2 3 13 15 12 14 13 10 7 9 11 10 14 14
13 13 8 10 12 13 14 15 15 13 13 11 11 6 2 5 1 2 1 8 10 9 14 10 6 11 12 13 10 15 9 15 8 12 6 14 5 9 10 5 8 12 9 4 3 2 1 2 1 7 7 3 3 6 3 2 6 10 10 10 11 4 2 2 2 8 4 9 5 8 12 14 10 17 7 3 5 2 5 9 7 10 10 11 12 14 15 13
10 11 9 7 13 14 13 15 14 13 13 11 10 7 2 2 2 4 4 8 9 14 16 6 9 3 9 11 9 12 16 14 11 10 11 6 8 8 16 8 5 9 15 13 4 2 2 3 1 0 4 3 7 10 12 10 4 3 3 6 1 2 4 11 11 1 5 10 4 8 7 10 10 13 22 16 13 5 5 5 9 13 14 14 13 14 14 13
12 8 4 4 14 16 13 15 12 13 9 12 11 2 3 4 3 2 4 11 5 6 0 9 5 11 11 7 14 13 10 9 13 8 10 3 8 2 12 13 8 7 11 10 6 4 1 1 2 1 1 6 10 9 14 16 14 7 5 5 3 3 0 2 2 5 4 5 10 6 11 4 12 10 12 12 13 8 9 11 11 12 14 17 15 15 14 10
7 4 1 1 14 17 16 11 11 14 9 3 4 4 3 4 3 1 1 3 4 2 5 11 11 11 10 10 5 5 5 8 7 8 8 3 11 3 4 8 7 11 8 7 7 4 3 3 6 2 3 6 2 7 13 15 15 13 13 12 16 15 7 8 7 4 5 4 5 7 17 7 7 1 6 9 10 9 12 13 12 11 13 14 15 13 12 9
11 5 2 1 13 21 17 12 1 3 4 8 8 6 5 5 3 4 3 1 5 3 3 6 2 5 9 7 10 12 10 10 8 7 5 8 7 5 5 12 10 14 13 9 10 7 6 3 4 5 2 6 2 6 4 2 6 11 12 12 10 10 8 9 14 8 3 9 2 2 3 14 6 2 5 6 4 7 10 9 10 9 11 13 15 15 10 6
5 3 1 4 11 20 16 7 3 4 3 3 10 5 5 4 5 3 5 2 3 0 2 2 6 7 1 4 5 7 8 5 9 9 7 10 5 9 4 10 11 14 11 4 4 3 5 2 3 2 3 3 3 3 6 4 2 2 3 1 4 10 12 12 8 1 4 4 8 6 10 11 10 3 6 4 2 2 2 2 7 7 7 11 12 14 13 8
3 5 2 6 5 17 13 6 9 7 5 4 7 8 2 4 6 5 3 2 4 2 5 4 1 1 6 1 8 13 13 6 4 5 3 3 3 5 5 8 16 9 12 9 11 10 7 4 8 5 3 0 3 5 2 5 1 2 4 9 9 7 8 4 2 1 2 8 10 9 15 7 11 2 2 3 5 4 3 5 3 7 9 9 10 10 11 8
5 3 5 3 5 13 12 1 9 8 8 10 10 10 7 3 2 2 4 4 2 3 4 1 2 4 4 1 7 5 11 7 4 6 2 1 5 2 3 12 14 11 7 10 11 10 8 5 11 12 12 11 11 10 10 8 12 8 7 12 12 13 13 5 8 3 7 4 10 5 6 11 13 3 4 3 4 3 5 4 4 5 8 11 10 10 9 6
2 6 1 3 6 5 5 2 3 7 12 12 11 8 10 8 2 1 8 2 1 2 4 4 2 8 6 7 4 5 8 1 5 5 8 4 3 1 4 10 12 8 10 13 12 11 3 4 11 12 13 15 12 5 1 5 5 4 1 11 14 16 18 16 7 7 11 4 7 5 6 11 19 21 17 6 3 4 7 7 6 6 7 10 9 9 7 9
1 4 5 3 3 5 6 3 5 3 9 10 11 8 6 7 6 2 4 3 3 3 2 1 4 8 3 9 6 6 10 5 3 6 12 11 0 2 2 7 6 8 8 5 8 6 2 5 11 11 15 15 11 11 3 11 12 14 15 17 18 18 17 15 12 12 5 7 13 6 11 9 21 24 23 8 3 4 5 6 9 8 7 6 7 6 8 9
3 1 4 2 3 5 7 1 7 7 4 1 3 6 14 14 8 7 2 2 2 0 6 2 4 7 16 14 9 7 8 9 4 5 4 5 4 0 2 1 5 7 9 2 1 3 6 8 9 10 14 15 15 9 4 4 8 11 15 15 16 17 16 17 18 19 16 13 14 14 11 12 20 25 24 3 6 6 7 7 5 3 5 6 6 7 9 10
2 3 2 3 3 3 8 13 15 12 10 6 2 8 10 13 13 6 5 5 3 2 1 6 8 7 14 12 12 7 10 8 7 5 5 7 12 6 3 2 4 1 5 3 6 2 2 9 8 9 12 12 15 12 3 5 4 6 12 17 17 17 19 21 20 22 22 16 13 15 7 16 19 24 5 1 2 4 5 4 5 5 6 5 6 8 10 12
1 3 2 2 4 6 8 9 9 11 10 6 5 8 11 14 13 3 1 6 5 5 1 4 10 6 9 10 11 12 15 18 19 16 4 5 1 1 5 6 4 1 4 6 4 3 7 4 9 3 5 11 12 10 4 6 6 9 10 10 13 13 15 19 18 18 16 16 13 13 15 17 17 18 9 3 3 4 5 6 7 6 6 6 7 10 11 12
1 1 1 7 6 3 7 8 9 12 9 2 4 5 5 11 12 7 2 2 11 12 8 11 11 7 4 8 6 9 13 14 9 15 17 17 14 12 11 5 7 6 6 5 4 1 7 2 3 3 7 11 10 10 10 8 8 13 12 9 7 9 11 11 14 15 16 18 20 20 15 15 19 16 2 12 11 11 13 7 5 7 9 12 15 16 16 15
0 1 1 2 6 0 7 6 7 8 8 6 4 7 7 13 9 11 5 1 2 3 9 10 12 10 3 6 12 12 7 5 4 4 8 5 3 5 2 3 8 11 8 9 4 7 6 5 8 4 8 11 10 7 10 10 8 12 15 10 9 10 11 13 17 17 20 17 16 15 16 18 23 3 3 19 20 15 9 9 10 14 18 18 18 19 19 13
Wind_Direction
234 229 231 225 227 230 235 230 227 216 212 209 205 200 197 194 197 200 206 208 202 189 185 184 185 186 180 166 154 170 176 163 158 182 197 213 199 162 168 176 147 166 155 83 85 113 16 23 58 342 31 37 317 10 296 40 16 55 152 110 251 209 164 202 168 186 169 116 231 215 212 115 162 169 207 110 41 77 335 274 300 313 254 221 252 310 152 139
233 228 227 226 227 220 227 230 232 226 210 210 207 203 198 193 192 198 198 205 200 193 185 181 185 187 179 162 155 160 164 157 184 207 210 186 181 155 177 147 132 141 117 107 139 129 119 55 42 50 56 86 322 308 357 212 67 101 105 124 229 182 238 167 185 184 122 264 195 199 185 149 212 150 218 122 269 62 230 277 19 317 292 309 327 125 134 146
233 232 225 226 226 221 225 232 229 229 220 208 207 204 200 192 194 196 197 198 200 198 186 181 184 189 180 164 151 156 151 148 182 212 214 200 155 167 151 143 138 146 119 158 193 139 146 180 181 96 20 102 4 242 20 265 88 213 122 213 240 206 246 215 172 187 202 130 134 168 225 173 215 154 122 202 171 77 204 226 284 265 250 231 276 159 163 160
231 228 218 221 224 218 220 224 226 230 228 211 207 204 200 196 194 196 191 191 194 195 185 184 186 189 183 163 147 154 156 15 234 202 203 184 176 167 160 148 136 115 102 67 148 113 105 95 69 95 88 82 302 31 179 263 120 246 108 192 229 197 175 257 195 233 201 156 142 150 58 177 246 200 159 166 109 253 264 238 196 213 220 211 193 186 175 174
232 229 221 219 221 220 214 218 222 221 222 220 205 205 201 197 192 191 189 183 198 196 190 183 186 185 181 158 159 149 128 216 233 191 190 174 185 167 158 143 122 100 105 136 85 71 94 110 94 46 90 211 4 17 253 312 151 110 212 191 192 94 212 247 207 194 146 196 106 127 140 218 94 66 153 151 175 220 211 236 219 228 213 158 175 195 183 186
234 228 224 218 222 219 212 217 219 220 222 216 210 205 203 196 190 187 186 184 189 195 190 185 186 181 175 163 159 165 146 208 166 178 178 171 182 177 168 128 121 112 102 57 102 128 107 38 88 107 55 91 194 170 267 172 75 227 314 262 212 209 161 272 174 196 136 129 135 148 218 101 155 202 192 182 194 233 215 210 219 222 205 184 156 159 183 192
232 229 223 223 222 223 213 209 220 220 219 215 211 204 206 198 191 187 188 188 185 187 192 185 185 177 172 162 173 167 197 241 23 274 177 171 177 172 173 130 116 108 103 103 111 133 133 123 113 168 99 129 285 187 251 77 8 143 246 354 281 167 214 154 60 84 145 140 208 195 77 151 146 211 132 189 239 240 203 248 244 218 131 137 153 180 186 193
228 228 220 220 225 219 212 220 217 215 219 220 211 205 204 203 191 186 187 189 187 187 186 186 184 179 157 164 155 190 199 226 234 226 181 175 173 167 156 128 127 121 124 155 159 142 139 142 165 134 108 157 217 168 275 200 73 209 268 203 269 81 243 280 114 66 158 191 129 105 133 223 185 194 107 232 238 250 250 36 87 125 134 156 173 186 196 200
226 224 221 212 214 218 213 209 223 213 210 224 222 211 202 204 199 187 187 188 185 177 199 185 184 182 170 149 195 183 213 178 202 138 143 182 171 160 135 132 140 133 138 132 154 158 134 220 128 180 210 185 208 168 281 160 290 187 232 139 354 254 18 349 297 272 60 294 133 91 247 270 265 194 248 237 253 245 129 54 106 126 150 186 197 196 192 199
221 219 220 214 215 211 205 201 214 212 202 211 223 219 210 197 201 194 189 188 183 180 189 188 180 174 173 168 185 221 190 120 39 56 140 167 162 156 168 153 154 143 131 170 116 144 168 194 170 182 129 101 135 195 184 165 228 193 252 230 234 258 28 14 214 347 349 209 211 197 249 252 348 116 265 259 238 117 143 138 144 157 194 204 206 205 209 204
217 217 218 212 212 209 200 198 203 207 200 201 216 222 216 198 198 196 192 190 185 181 188 186 181 165 179 183 187 212 329 168 177 99 127 147 148 164 173 163 164 158 158 161 181 183 190 154 133 112 65 217 136 234 116 218 168 165 186 350 298 272 247 226 347 292 344 292 168 195 251 296 285 74 226 205 352 157 171 174 178 200 215 217 218 211 212 215
218 215 215 214 208 206 201 196 197 202 201 197 209 218 215 204 194 193 199 190 186 186 182 187 177 168 174 187 205 202 213 51 121 119 133 144 163 177 170 170 167 169 159 168 194 203 176 160 141 141 189 132 164 107 244 218 92 219 146 271 295 331 304 244 226 228 151 263 143 166 324 304 238 236 196 225 52 124 181 207 213 221 228 231 229 228 219 219
217 213 211 210 211 209 201 193 194 201 201 196 199 210 219 207 193 191 197 192 188 192 183 184 172 170 155 190 206 189 198 179 129 113 109 117 66 91 134 133 166 166 176 168 182 193 159 155 142 141 135 128 171 151 181 100 188 99 64 158 299 307 291 267 122 82 145 249 146 166 259 219 239 243 155 243 171 83 200 240 233 231 235 240 236 231 237 241
215 211 205 203 209 212 204 196 193 189 192 193 194 205 209 206 197 189 193 192 182 200 191 171 160 168 180 208 114 243 207 127 116 108 127 124 108 85 88 101 69 75 50 84 60 103 133 153 127 121 144 102 174 267 45 350 38 196 233 88 208 203 253 288 193 149 172 222 173 104 239 252 258 270 264 246 176 194 229 239 241 236 239 239 236 238 240 244
213 210 202 199 207 209 206 198 193 188 191 191 192 209 207 201 195 192 186 182 193 187 185 149 152 130 203 192 318 269 143 110 120 149 153 126 118 109 125 115 106 90 77 104 122 93 117 103 94 139 198 245 73 88 316 34 356 198 121 235 16 197 287 295 216 155 191 313 81 117 256 251 264 271 244 252 208 185 226 242 243 239 236 237 238 240 248 250
211 209 206 200 204 204 204 197 194 190 193 189 191 201 201 200 205 185 184 179 186 181 174 92 140 125 121 202 199 97 130 152 191 172 215 135 145 149 149 133 104 82 99 17 93 115 109 109 143 182 111 46 115 111 53 36 271 272 197 259 210 163 241 334 233 233 278 98 336 175 230 293 301 263 290 294 178 183 224 246 254 252 249 246 243 242 248 266
208 206 201 196 198 201 198 197 196 196 196 191 189 196 197 194 196 188 179 177 172 158 146 159 126 95 189 330 58 156 177 119 136 101 134 181 133 128 122 124 113 92 77 50 23 102 340 112 298 57 46 153 144 115 180 233 242 220 182 213 191 178 172 232 308 229 224 152 209 235 223 241 228 283 293 355 147 153 207 242 253 256 260 255 254 248 247 243
210 205 201 197 199 201 198 194 195 196 191 183 173 178 187 193 194 184 175 158 101 100 94 23 106 75 244 233 177 185 153 134 150 138 115 155 128 138 140 131 120 114 104 77 336 127 255 107 57 191 146 160 146 177 193 221 211 188 159 209 255 23 198 192 161 257 151 250 206 217 233 253 253 275 286 253 121 164 228 234 249 257 258 264 255 253 250 250
208 204 199 196 195 198 197 192 192 188 170 172 182 174 169 171 183 66 83 139 125 134 186 184 161 206 165 195 262 109 141 143 116 135 160 128 141 119 80 104 133 132 143 147 240 151 241 80 53 124 199 185 198 196 208 114 125 198 182 189 157 177 206 201 234 266 172 198 226 218 228 242 250 253 257 274 223 200 245 260 275 265 255 256 254 252 251 249
209 204 195 196 195 192 196 196 186 186 168 172 176 168 166 169 158 170 11 213 189 165 27 147 188 115 53 58 85 94 86 133 130 324 141 151 132 127 113 134 131 134 145 181 157 195 145 171 189 200 206 199 199 202 212 182 162 142 164 172 194 187 251 274 262 258 219 204 228 226 236 241 256 246 256 252 276 271 265 261 258 260 262 257 255 251 250 247
205 205 198 192 193 194 194 193 181 181 173 178 167 169 198 166 172 161 149 185 173 54 39 178 175 139 141 151 132 139 130 35 31 150 170 202 137 135 178 133 149 158 186 165 155 119 172 188 209 210 205 188 196 197 195 186 137 155 164 175 207 189 219 219 210 343 304 173 301 259 260 253 257 260 255 256 262 262 259 259 252 255 254 255 255 259 258 255
204 203 198 191 192 190 193 192 186 183 176 168 166 190 191 185 114 139 142 168 190 15 73 148 148 84 10 58 150 139 58 116 93 93 187 159 173 160 207 157 165 176 157 114 107 157 191 204 210 209 183 163 179 193 195 199 143 91 159 183 183 238 255 285 254 323 350 133 257 284 267 258 249 257 254 244 233 239 243 246 249 242 249 252 252 252 259 265
204 203 200 194 193 190 191 192 189 180 169 158 181 189 207 156 102 102 82 59 108 325 113 148 178 141 132 181 177 169 153 176 153 174 179 156 171 194 157 157 177 153 149 153 171 157 199 222 222 171 139 176 192 180 152 171 187 154 100 143 211 197 147 259 289 336 207 170 273 318 301 274 253 256 260 244 227 232 233 243 250 238 245 247 249 246 247 252
201 199 196 197 189 187 187 191 180 173 178 165 175 185 124 190 124 136 108 156 168 140 126 230 164 177 157 162 191 135 167 176 154 176 198 164 169 140 165 171 168 161 183 181 186 185 200 213 191 133 176 192 187 165 167 179 215 198 180 174 141 171 210 157 238 311 293 335 48 335 294 281 251 254 261 244 224 232 239 247 255 252 241 246 256 262 245 247
195 193 195 195 196 184 187 185 180 179 164 177 188 140 140 156 144 147 115 95 166 190 154 83 22 332 166 27 163 153 154 6 328 163 178 173 149 148 197 175 161 186 176 191 185 200 218 178 131 185 198 189 162 174 195 183 213 209 219 199 180 159 146 170 55 98 24 323 351 58 330 275 229 221 236 256 240 237 241 241 250 255 249 247 247 248 253 250
196 189 193 188 189 186 176 193 194 171 174 185 166 156 139 161 141 173 106 79 207 152 104 211 140 219 123 176 71 111 53 197 172 157 162 186 178 157 141 193 168 183 182 181 189 207 205 180 174 191 177 171 185 203 202 176 210 202 221 166 146 166 148 127 156 114 261 250 287 38 212 282 130 273 216 259 256 239 251 229 244 252 255 247 243 243 246 246
205 193 190 188 190 178 173 202 145 160 168 184 170 145 150 157 125 129 127 348 206 184 162 69 187 253 176 169 140 119 189 202 74 124 160 180 173 330 169 145 135 245 167 152 195 215 151 170 169 181 183 182 192 207 188 179 194 226 137 138 137 143 148 174 139 172 222 239 283 43 134 270 296 269 179 220 249 251 238 241 245 249 252 245 245 243 240 243
194 202 192 189 188 179 185 150 158 174 181 147 152 139 135 172 112 40 243 165 227 122 172 168 216 298 93 176 157 170 299 129 164 186 180 163 134 45 204 180 185 171 167 164 208 131 184 172 177 174 176 189 202 204 181 174 193 211 172 141 187 147 160 149 140 106 231 43 270 162 70 298 260 267 141 178 239 251 244 231 239 247 250 252 247 245 241 239
189 191 198 189 183 184 173 166 162 176 165 146 149 130 129 204 152 150 184 186 120 108 256 134 183 99 107 124 176 116 92 3 78 136 139 131 262 151 183 201 186 168 175 186 191 134 346 184 191 179 175 195 198 184 131 166 199 214 142 87 117 113 90 148 135 149 154 192 257 234 170 233 275 262 253 208 232 250 253 228 233 240 247 248 247 247 244 245
188 185 194 192 178 185 174 140 176 160 125 138 136 124 123 130 104 180 182 234 123 162 191 157 172 166 142 146 164 179 139 358 99 137 151 161 180 26 357 49 160 157 177 215 219 157 226 345 133 154 191 189 129 135 163 176 128 128 107 102 63 51 81 33 102 125 90 236 241 227 180 191 274 274 211 167 230 205 247 257 245 241 249 252 250 252 252 240
185 185 189 187 186 174 141 168 162 137 136 131 133 136 134 164 188 173 200 194 76 210 107 168 161 153 160 163 153 178 98 155 156 148 152 130 201 158 124 135 73 126 154 185 228 266 13 61 134 233 151 98 120 92 72 130 146 131 96 116 96 43 82 109 3 125 213 244 241 224 188 189 219 285 110 209 331 207 213 244 233 241 246 248 247 247 247 247
188 186 184 186 182 158 174 162 152 149 142 137 134 151 156 176 219 201 163 184 173 184 163 130 158 154 159 167 163 170 171 142 175 170 169 178 164 186 177 196 153 203 179 172 205 201 237 187 228 159 151 137 135 117 146 143 165 140 128 136 166 203 152 222 130 212 198 225 263 144 154 226 224 249 235 276 244 260 209 218 234 243 252 253 254 254 261 273
184 186 180 186 173 170 179 136 143 145 146 143 145 152 179 181 200 155 115 147 248 167 188 164 163 159 162 154 187 166 172 181 153 196 165 197 178 197 189 182 188 193 188 184 174 171 220 192 166 144 143 166 146 153 156 159 185 152 168 162 172 189 190 219 199 218 245 264 235 88 169 230 281 274 253 255 253 261 258 247 242 238 242 250 259 281 293 274
171 177 185 179 172 173 132 135 145 147 149 147 148 165 188 200 192 85 140 154 160 50 148 160 154 155 159 175 172 163 171 193 167 183 184 162 175 187 206 209 181 134 88 130 192 168 178 203 214 150 204 163 179 180 176 177 172 187 178 181 189 180 188 205 192 210 211 219 266 159 102 225 147 243 300 229 242 242 247 253 256 258 257 271 277 276 273 268
175 172 175 172 160 141 148 148 151 155 146 152 169 183 192 184 116 147 144 148 29 133 138 141 149 151 165 166 167 177 160 175 184 160 191 179 200 202 186 170 219 116 90 154 213 163 215 230 188 181 114 169 184 184 173 131 176 202 173 163 198 212 152 211 180 212 213 224 230 215 206 186 216 257 288 216 122 293 282 295 290 269 264 254 262 257 257 260
168 170 164 165 152 152 161 155 154 157 154 157 176 196 188 165 150 174 164 155 152 146 133 130 157 140 165 154 147 166 204 109 164 178 193 204 214 210 164 168 192 194 180 180 145 191 156 229 175 171 162 178 182 169 183 151 191 165 156 206 208 218 183 60 352 133 87 95 241 150 283 281 301 285 268 267 211 236 257 269 270 257 252 247 250 255 257 258
166 150 172 148 160 151 157 164 161 160 159 166 179 199 164 17 310 130 164 165 162 140 144 152 174 158 166 161 165 167 182 90 168 171 208 162 239 217 179 131 166 174 267 114 28 306 181 178 344 159 187 207 182 176 159 186 127 116 207 193 79 67 113 181 223 132 173 204 239 190 230 255 246 278 344 261 232 240 214 231 235 244 255 262 256 256 252 250
152 165 146 153 157 155 160 161 160 164 166 173 194 129 358 115 203 134 138 119 121 147 144 149 148 166 164 162 176 168 172 175 185 167 207 175 270 171 205 163 182 175 167 105 118 259 73 244 195 219 189 105 51 122 201 276 339 196 192 153 164 192 214 234 119 223 163 215 245 228 215 241 211 255 260 249 234 258 237 234 242 259 257 253 256 252 256 257
149 153 160 174 149 155 156 156 162 167 173 178 180 131 249 95 133 165 175 147 145 150 158 178 133 195 162 180 158 172 165 184 168 177 170 201 200 194 193 146 217 171 165 134 137 188 12 189 350 296 153 176 160 170 199 187 222 2 49 160 175 106 225 176 203 225 187 232 206 254 166 244 215 233 251 250 262 238 236 231 224 229 239 246 250 252 251 254
147 152 171 154 155 144 147 153 165 175 184 193 173 79 139 113 176 237 216 142 144 134 248 138 162 135 173 178 164 167 185 181 172 183 181 178 195 230 182 179 159 165 155 165 159 143 92 57 190 322 44 156 194 181 201 183 183 188 171 173 158 218 279 122 290 203 174 198 223 254 257 215 239 225 248 255 252 226 210 216 216 220 230 240 244 248 253 253
134 100 123 194 151 138 144 162 181 188 174 39 63 132 150 145 131 113 256 354 97 337 152 155 154 163 161 145 171 164 164 175 164 176 181 194 183 194 226 180 146 164 150 156 163 166 97 154 196 136 203 223 180 202 218 198 183 185 188 194 188 177 185 178 231 172 218 191 201 195 245 249 260 190 195 234 241 212 218 216 219 218 225 238 250 254 254 266
146 154 216 288 153 145 151 176 194 86 128 168 171 149 137 105 92 168 107 325 86 133 359 100 92 128 149 162 153 168 162 173 173 174 205 187 209 207 205 179 164 147 154 183 181 189 149 145 111 196 220 213 301 315 325 315 205 202 190 203 186 199 181 199 218 198 167 221 236 223 335 257 249 200 211 230 231 212 217 213 222 221 227 234 247 256 256 240
145 101 59 348 177 151 164 180 92 140 109 135 111 79 108 96 121 231 145 196 103 226 110 118 179 127 240 135 157 147 153 181 175 191 179 198 222 197 233 156 143 155 141 164 133 225 79 110 97 300 315 325 301 324 8 3 121 243 247 103 167 201 201 211 213 116 200 173 206 227 244 263 269 175 245 232 261 288 305 225 240 247 246 250 252 261 269 280
100 119 56 2 217 157 177 169 168 140 109 93 105 113 50 143 141 160 159 206 124 177 147 147 68 359 150 135 148 166 169 156 212 161 197 222 245 213 132 146 155 169 159 194 174 172 186 198 179 176 231 305 269 279 318 345 268 203 210 212 210 209 218 242 8 112 217 207 205 193 237 244 265 68 355 14 5 347 302 274 229 240 255 255 264 272 276 288
107 39 39 348 351 177 182 120 154 136 138 134 132 133 137 67 314 115 135 140 44 136 109 45 181 145 74 151 152 150 172 157 154 207 149 187 217 8 148 166 177 172 185 181 179 163 199 155 174 209 203 197 203 195 197 197 205 192 218 207 203 206 210 207 233 193 239 197 196 219 256 261 272 302 323 39 4 347 280 271 297 242 255 261 259 264 281 306
159 127 287 18 18 55 51 328 45 144 145 141 131 160 142 135 142 19 116 82 113 51 68 128 346 94 98 124 97 129 167 10 123 179 184 203 214 264 217 188 192 181 197 171 162 153 181 193 193 202 207 222 230 235 237 82 56 174 217 192 204 205 207 206 213 214 221 148 210 205 228 276 281 275 260 273 4 284 291 308 287 278 270 262 261 275 285 283
69 114 154 154 53 25 113 75 114 130 163 159 144 154 153 146 144 64 318 117 205 136 79 32 174 138 206 140 152 158 181 150 3 135 194 199 13 208 342 179 202 215 175 139 172 120 81 196 212 207 220 232 232 230 205 166 181 196 192 202 201 201 202 206 207 231 195 225 245 199 213 229 260 269 266 256 288 281 264 262 273 260 263 280 297 296 283 277
95 311 35 278 140 161 117 312 145 141 92 162 119 148 157 149 167 145 28 16 79 96 124 5 194 171 161 165 147 154 177 177 140 196 201 221 121 293 104 341 181 215 176 147 200 173 159 204 214 203 228 235 238 236 149 195 193 197 208 208 205 205 199 203 214 224 212 218 234 234 201 211 249 258 272 229 204 236 255 261 264 278 287 295 313 301 284 274
70 102 55 339 92 160 167 156 155 152 146 144 98 157 157 160 166 166 151 135 124 271 113 149 193 185 171 157 149 151 161 155 231 214 174 182 188 156 151 56 274 77 159 169 155 176 120 229 210 203 227 234 240 239 155 175 223 228 217 213 212 203 206 206 215 221 221 223 224 238 208 215 235 254 232 80 238 225 253 269 294 307 290 295 291 285 282 278
170 129 158 355 64 87 108 126 139 140 153 178 141 196 163 170 163 120 53 136 146 205 304 152 175 168 167 166 160 165 183 186 183 197 193 120 105 164 188 184 150 77 168 180 143 256 169 231 194 165 209 241 241 247 207 206 197 227 230 226 223 219 214 212 217 225 230 240 241 242 236 243 246 251 265 275 235 299 301 307 297 308 312 296 281 272 271 267
322 263 162 128 95 98 100 133 147 155 150 171 158 172 156 173 162 156 144 290 182 166 176 193 155 131 139 163 188 192 190 195 192 195 177 168 189 195 166 244 147 151 163 166 147 158 170 279 144 139 218 238 234 228 221 225 218 229 234 223 217 201 213 213 220 216 215 217 220 230 239 248 257 251 283 257 248 236 246 246 282 287 285 285 282 281 280 281
268 229 134 88 87 135 142 142 138 136 178 176 163 172 174 183 163 148 106 350 30 154 168 138 142 127 138 164 202 206 197 176 193 189 165 194 74 78 89 149 152 158 165 185 149 167 177 174 212 165 223 241 243 204 218 227 247 246 224 213 206 214 212 216 221 218 217 210 216 218 231 232 243 227 224 256 247 239 236 229 232 238 241 242 246 248 251 255